Holland, MI

3:36 PM EDT on October 18, 2017 (GMT -0400)
Tulip City

Weather History for KBIV - November, 2011

Change the Weather History Date:

Sunday, November 13, 2011

  Actual Average Record
Temperature  
Mean Temperature 60 °F 43 °F  
Max Temperature 67 °F 50 °F 67 °F (2011)
Min Temperature 52 °F 36 °F 16 °F (1986)
Degree Days  
Heating Degree Days 5 22  
Month to date heating degree days 259  
Since 1 July heating degree days 784  
Cooling Degree Days 0 0  
Month to date cooling degree days 0  
Year to date cooling degree days 693  
Growing Degree Days 10 (Base 50)    
Moisture  
Dew Point 45 °F    
Average Humidity 55    
Maximum Humidity 62    
Minimum Humidity 48    
Precipitation  
Precipitation 0.00 in 0.13 in 0.70 in (1993)
Month to date precipitation 1.69 1.77  
Year to date precipitation 32.47  
Sea Level Pressure  
Sea Level Pressure 29.49 in    
Wind  
Wind Speed 20 mph (SSW)    
Max Wind Speed 29 mph    
Max Gust Speed 39 mph    
Visibility 10 miles    
Events      
T = Trace of Precipitation, MM = Missing Value Source: NWS Daily Summary

Daily Weather History Graph

Daily Weather History Graph

Search for Another Location

Airport or City:

Trip Planner

Search our weather history database for the weather conditions in past years. The results will help you decide how hot, cold, wet, or windy it might be!

Date:

Astronomy

Nov. 13, 2011 Rise Set
Actual Time 7:33 AM EST 5:23 PM EST
Civil Twilight 7:03 AM EST 5:53 PM EST
Nautical Twilight 6:28 AM EST 6:27 PM EST
Astronomical Twilight 5:55 AM EST 7:01 PM EST
Moon 7:29 PM EST (11/13) 10:08 AM EST (11/13)
Length of Visible Light 10h 50m
Length of Day
9h 50m
Waning Gibbous, 93% of the Moon is Illuminated
Nov 13
Waning Gibbous
Nov 18
Last Quarter
Nov 25
New
Dec 2
First Quarter
Dec 10
Full

Hourly Weather History & Observations

Time (EST) Temp. Dew Point Humidity Pressure Visibility Wind Dir Wind Speed Gust Speed Precip Events Conditions
12:53 AM 57.0 °F 41.0 °F 55% 29.63 in 10.0 mi SSW 18.4 mph 31.1 mph N/A   Mostly Cloudy
1:53 AM 57.0 °F 42.1 °F 57% 29.61 in 10.0 mi South 19.6 mph 26.5 mph N/A   Overcast
2:53 AM 57.0 °F 42.1 °F 57% 29.59 in 10.0 mi South 20.7 mph 27.6 mph N/A   Overcast
3:53 AM 57.0 °F 43.0 °F 59% 29.57 in 10.0 mi South 15.0 mph 26.5 mph N/A   Mostly Cloudy
4:53 AM 57.0 °F 43.0 °F 59% 29.55 in 10.0 mi South 19.6 mph 28.8 mph N/A   Overcast
5:53 AM 57.9 °F 44.1 °F 60% 29.54 in 10.0 mi SSW 23.0 mph 31.1 mph N/A   Overcast
6:53 AM 59.0 °F 45.0 °F 60% 29.52 in 10.0 mi SSW 23.0 mph 31.1 mph N/A   Overcast
7:53 AM 57.0 °F 45.0 °F 64% 29.52 in 10.0 mi South 16.1 mph 24.2 mph N/A   Overcast
8:53 AM 57.9 °F 45.0 °F 62% 29.53 in 10.0 mi South 20.7 mph 26.5 mph N/A   Overcast
9:03 AM 57.2 °F 46.4 °F 67% 29.52 in 10.0 mi South 17.3 mph 25.3 mph N/A   Overcast
9:12 AM 59.0 °F 46.4 °F 63% 29.51 in 10.0 mi South 20.7 mph 29.9 mph N/A   Overcast
9:53 AM 59.0 °F 46.0 °F 62% 29.49 in 10.0 mi South 19.6 mph 28.8 mph N/A   Mostly Cloudy
10:53 AM 61.0 °F 46.9 °F 60% 29.47 in 10.0 mi South 18.4 mph 27.6 mph N/A   Mostly Cloudy
11:53 AM 62.1 °F 48.0 °F 60% 29.45 in 10.0 mi South 19.6 mph 27.6 mph N/A   Overcast
12:53 PM 63.0 °F 48.9 °F 60% 29.42 in 10.0 mi South 23.0 mph 34.5 mph N/A   Overcast
1:53 PM 64.0 °F 48.9 °F 58% 29.39 in 10.0 mi South 20.7 mph 32.2 mph N/A   Overcast
2:53 PM 64.0 °F 48.9 °F 58% 29.37 in 10.0 mi South 20.7 mph 28.8 mph N/A   Mostly Cloudy
3:53 PM 64.9 °F 50.0 °F 58% 29.33 in 10.0 mi South 19.6 mph 25.3 mph N/A   Scattered Clouds
4:53 PM 64.9 °F 50.0 °F 58% 29.34 in 10.0 mi South 16.1 mph 24.2 mph N/A   Partly Cloudy
5:53 PM 66.9 °F 48.0 °F 51% 29.36 in 10.0 mi SW 27.6 mph 38.0 mph N/A   Mostly Cloudy
6:53 PM 62.1 °F 43.0 °F 50% 29.40 in 10.0 mi WSW 21.9 mph 29.9 mph N/A   Partly Cloudy
7:53 PM 57.9 °F 42.1 °F 56% 29.44 in 10.0 mi WSW 16.1 mph - N/A   Clear
8:53 PM 55.9 °F 41.0 °F 57% 29.47 in 10.0 mi WSW 16.1 mph - N/A   Clear
9:53 PM 55.0 °F 39.0 °F 55% 29.51 in 10.0 mi WSW 23.0 mph 29.9 mph N/A   Clear
10:53 PM 53.1 °F 37.9 °F 57% 29.55 in 10.0 mi WSW 23.0 mph 28.8 mph N/A   Clear
11:53 PM 52.0 °F 39.0 °F 61% 29.58 in 10.0 mi WSW 16.1 mph 25.3 mph N/A   Clear